Home > Weather > Butare > Past weeks

Flag for Rwanda Weather for the Past 2 Weeks in Butare, Rwanda

Now
75 °F

Scattered clouds.


Feels Like: 77 °F
Forecast: 56 / 72 °F
Wind: 5 mph from Southwest

Location: Kigali Airport

Current Time: May 5, 2016 at 4:31:13 PM

Latest Report: May 5, 2016 at 3:30 PM


Visibility: N/A

Pressure: 30.07 "Hg (24.59 "Hg at 1750m altitude)

Humidity: 61%

Dew Point: 61 °F

Location of ButareLocation

Historic Weather in Butare — Graph

°F

Butare Temperature Yesterday

Maximum temperature yesterday: 79 °F (at 1:00 PM)
Minimum temperature yesterday: 64 °F (at 3:00 AM)
Average temperature yesterday: 72 °F

High & Low Weather Summary for the Past Weeks

 TemperatureHumidityPressure
High84 °F (Apr 22, 2:00 PM)100% (Apr 23, 3:30 AM)30.21 "Hg (Apr 23, 3:30 AM)
Low61 °F (May 2, 7:00 AM)48% (Apr 21, 2:30 PM)29.98 "Hg (Apr 23, 3:30 PM)
Average71 °F80%30.11 "Hg
* Reported Apr 20 3:00 PM — May 5 3:00 PM, Butare, Weather by CustomWeather, © 2016

Note: Actual official high and low records may vary slightly from our data, if they occured in-between our weather recording intervals... More about our weather records

Advertising

Butare Weather History for the Previous 24 Hours

Scroll right to see more
 ConditionsComfort  
Time TempWeatherWind HumidityBarometerVisibility
3:00 PM
Thu, May 5
79 °FScattered clouds.5 mph54%30.07 "HgN/A
2:30 PM75 °FScattered clouds.10 mph65%30.07 "HgN/A
2:00 PM79 °FScattered clouds.5 mph58%30.09 "HgN/A
1:30 PM79 °FScattered clouds.3 mph58%30.12 "HgN/A
12:30 PM77 °FPartly sunny.7 mph65%30.15 "HgN/A
12:00 PM77 °FScattered clouds.8 mph65%30.18 "HgN/A
11:00 AM75 °FPartly sunny.7 mph69%30.21 "HgN/A
10:00 AM73 °FScattered clouds.6 mph78%30.21 "HgN/A
9:30 AM72 °FScattered clouds.5 mph78%30.18 "HgN/A
8:30 AM70 °FScattered clouds.1 mph88%30.18 "HgN/A
7:30 AM66 °FScattered clouds.No wind94%30.15 "HgN/A
7:00 AM66 °FScattered clouds.No wind94%30.15 "HgN/A
6:30 AM64 °FScattered clouds.5 mph94%30.12 "HgN/A
5:30 AM64 °FPassing clouds.3 mph100%30.09 "HgN/A
10:30 PM
Wed, May 4
66 °FPassing clouds.5 mph94%30.15 "HgN/A
9:00 PM66 °FMild.3 mph88%30.12 "HgN/A
8:30 PM66 °FMild.6 mph88%30.12 "HgN/A
7:01 PM68 °FThunderstorms. Passing clouds.12 mph94%30.09 "Hg2 mi
6:30 PM73 °FPassing clouds.6 mph78%30.07 "HgN/A
6:00 PM73 °FPassing clouds.6 mph74%30.04 "HgN/A
5:30 PM75 °FPartly sunny.2 mph69%30.04 "HgN/A
5:00 PM75 °FPartly sunny.2 mph69%30.07 "HgN/A
4:30 PM77 °FPartly sunny.1 mph69%30.07 "HgN/A
4:00 PM77 °FPartly sunny.2 mph69%30.07 "HgN/A
Weather by CustomWeather, © 2016

See weather overviewHow to use our weather pages